Regional Weather Roundup
Issued by NWS

Home | Current Version | Previous Version | Text Only | Print | Product List | Glossary Off
Versions: 1 2 3 4 5 6 7 8 9 10 11 12 13 14 15 16 17 18 19 20 21 22 23 24 25 26 27 28 29 30 31 32 33 34 35 36 37 38 39 40 41 42 43 44 45 46 47 48 49 50

000
ASUS43 KFSD 230010
RWRSD

WEATHER ROUNDUP FOR SOUTH DAKOTA
NATIONAL WEATHER SERVICE SIOUX FALLS SD
700 PM CDT FRI AUG 22 2014

NOTE: "FAIR" INDICATES FEW OR NO CLOUDS BELOW 12,000 FEET WITH NO
SIGNIFICANT WEATHER AND/OR OBSTRUCTIONS TO VISIBILITY.


SDZ001>005-009-010-012>017-230100-
NORTHWEST AND NORTH CENTRAL SOUTH DAKOTA

CITY           SKY/WX    TMP DP  RH WIND       PRES   REMARKS
BUFFALO          N/A     69  59  70 E13       29.98S
FAITH            N/A     72  63  73 NE14      30.01F
MOBRIDGE       PTSUNNY   73  64  73 N7        29.99F
$$

SDZ012>016-024>037-041>051-057-063-072>074-230100-
SOUTHWEST AND SOUTH CENTRAL SOUTH DAKOTA

CITY           SKY/WX    TMP DP  RH WIND       PRES   REMARKS
RAPID CTY ARPT PTSUNNY   74  62  66 E7        30.01F
PIERRE         PTSUNNY   76  66  71 NE15      29.96F
ELLSWORTH AFB  PTSUNNY   74  63  67 E9        30.01F
PHILIP         MOSUNNY   81  65  58 E13       29.95F
PINE RIDGE     PTSUNNY   77  60  55 SE8       30.00F
WINNER         FAIR      82  68  62 SE8       29.96F
$$

SDZ004>011-016>023-039-040-230100-
NORTHEAST SOUTH DAKOTA

CITY           SKY/WX    TMP DP  RH WIND       PRES   REMARKS
ABERDEEN       PTSUNNY   76  67  73 NE8       30.00S
WATERTOWN      HVY RAIN  71  68  90 NE7       30.01F FOG
SISSETON         N/A     76  70  82 NE6       30.00R
$$

SDZ017-020-022-023-036>040-048>070-230100-
SOUTHEAST SOUTH DAKOTA

CITY           SKY/WX    TMP DP  RH WIND       PRES   REMARKS
SIOUX FALLS    PTSUNNY   80  68  66 E10       29.95F
HURON          PTSUNNY   76  69  79 NE9       29.95F
CHAMBERLAIN    PTSUNNY   78  68  71 E5        29.95F
MITCHELL       PTSUNNY   82  72  71 E5        29.95F
YANKTON        PTSUNNY   81  73  78 NE7       29.91F
$$

ABBREVIATIONS USED IN REMARKS
   TC - TEMPERATURE IN CELSIUS
  WCI - WIND CHILL INDEX
   HX - HEAT INDEX
  VSB - VISIBILITY



USA.gov is the U.S. government's official web portal to all federal, state and local government web resources and services.